Home > Weather > Ojinaga > Past weeks

Flag for Mexico Past Weather in Ojinaga, Chihuahua, Mexico — Yesterday and Last 2 Weeks

Now
79 °F

Sunny.


Feels Like: 80 °F
Forecast: 73 / 96 °F
Wind: 6 mph from Southwest

Location: Alpine-Casparis Municipal Airport

Current Time: Jun 26, 2016 at 9:26:37 AM

Latest Report: Jun 26, 2016 at 8:55 AM


Visibility: 10 mi

Pressure: 30.25 "Hg (27.65 "Hg at 788m altitude)

Humidity: 48%

Dew Point: 58 °F

Location of OjinagaLocation

Past Weather in Ojinaga — Graph

°F

Ojinaga Temperature Yesterday

Maximum temperature yesterday: 90 °F (at 1:15 PM)
Minimum temperature yesterday: 65 °F (at 4:35 AM)
Average temperature yesterday: 78 °F

High & Low Weather Summary for the Past Weeks

 TemperatureHumidityPressure
High100 °F (Jun 18, 3:55 PM)89% (Jun 21, 5:15 AM)30.39 "Hg (Jun 21, 5:15 AM)
Low60 °F (Jun 20, 6:15 AM)7% (Jun 18, 3:35 PM)30.01 "Hg (Jun 14, 5:15 PM)
Average80 °F45%30.18 "Hg
* Reported Jun 11 8:15 AM — Jun 26 8:15 AM, Ojinaga, Weather by CustomWeather, © 2016

Note: Actual official high and low records may vary slightly from our data, if they occured in-between our weather recording intervals... More about our weather records

Advertising

Ojinaga Weather History for the Previous 24 Hours

Scroll right to see more
 ConditionsComfort  
Time TempWeatherWind HumidityBarometerVisibility
8:15 AM
Sun, Jun 26
77 °FSunny.3 mph54%30.25 "Hg10 mi
7:55 AM75 °FSunny.3 mph57%30.25 "Hg10 mi
7:35 AM75 °FSunny.5 mph60%30.24 "Hg10 mi
7:15 AM73 °FSunny.3 mph65%30.23 "Hg10 mi
6:55 AM71 °FSunny.5 mph72%30.22 "Hg10 mi
6:35 AM69 °FPassing clouds.6 mph73%30.22 "Hg10 mi
6:15 AM68 °FMostly cloudy.9 mph76%30.21 "Hg10 mi
5:55 AM68 °FOvercast.7 mph76%30.21 "Hg10 mi
5:35 AM67 °FThundershowers. Passing clouds.3 mph73%30.21 "Hg10 mi
5:15 AM67 °FThunderstorms. Partly cloudy.7 mph74%30.20 "Hg10 mi
4:55 AM67 °FPassing clouds.No wind74%30.20 "Hg10 mi
4:15 AM69 °FPassing clouds.3 mph68%30.20 "Hg10 mi
3:55 AM69 °FPassing clouds.No wind67%30.19 "Hg10 mi
3:35 AM68 °FPassing clouds.3 mph66%30.19 "Hg10 mi
3:15 AM70 °FPassing clouds.5 mph63%30.18 "Hg10 mi
2:55 AM69 °FPassing clouds.7 mph72%30.17 "Hg10 mi
2:35 AM68 °FClear.5 mph74%30.17 "Hg10 mi
2:15 AM70 °FClear.7 mph71%30.17 "Hg10 mi
1:55 AM69 °FClear.6 mph71%30.17 "Hg10 mi
1:35 AM69 °FClear.6 mph72%30.18 "Hg10 mi
1:15 AM69 °FClear.5 mph69%30.20 "Hg10 mi
12:55 AM70 °FClear.7 mph67%30.20 "Hg10 mi
12:35 AM70 °FClear.3 mph57%30.21 "Hg10 mi
12:15 AM70 °FClear.6 mph56%30.20 "Hg10 mi
11:55 PM
Sat, Jun 25
70 °FClear.6 mph57%30.21 "Hg10 mi
11:15 PM72 °FClear.5 mph52%30.21 "Hg10 mi
10:55 PM72 °FClear.8 mph52%30.21 "Hg10 mi
10:35 PM70 °FClear.3 mph58%30.18 "Hg10 mi
10:15 PM73 °FClear.6 mph51%30.16 "Hg10 mi
9:55 PM74 °FClear.7 mph49%30.16 "Hg10 mi
9:35 PM76 °FClear.7 mph46%30.16 "Hg10 mi
9:15 PM76 °FClear.6 mph45%30.16 "Hg10 mi
8:55 PM75 °FSunny.6 mph48%30.14 "Hg10 mi
8:35 PM76 °FSunny.5 mph45%30.12 "Hg10 mi
8:15 PM76 °FScattered clouds.8 mph44%30.12 "Hg10 mi
7:55 PM78 °FScattered clouds.7 mph42%30.13 "Hg10 mi
7:35 PM79 °FScattered clouds.10 mph39%30.13 "Hg10 mi
7:15 PM80 °FSunny.15 mph40%30.13 "Hg10 mi
6:55 PM80 °FSunny.10 mph41%30.11 "Hg10 mi
6:35 PM82 °FSunny.12 mph36%30.10 "Hg10 mi
6:15 PM82 °FSunny.16 mph37%30.09 "Hg10 mi
5:55 PM80 °FScattered clouds.21 mph41%30.09 "Hg10 mi
5:35 PM82 °FPartly sunny.26 mph36%30.08 "Hg7 mi
5:15 PM87 °FScattered clouds.15 mph34%30.07 "Hg10 mi
4:55 PM88 °FPartly sunny.8 mph29%30.08 "Hg10 mi
4:35 PM88 °FPartly sunny.No wind26%30.07 "Hg10 mi
4:15 PM88 °FScattered clouds.3 mph27%30.08 "Hg10 mi
3:55 PM88 °FScattered clouds.5 mph27%30.09 "Hg10 mi
3:35 PM89 °FScattered clouds.6 mph26%30.09 "Hg10 mi
3:15 PM89 °FSunny.7 mph25%30.09 "Hg10 mi
2:55 PM90 °FSunny.10 mph26%30.09 "Hg10 mi
2:35 PM89 °FScattered clouds.9 mph26%30.10 "Hg10 mi
2:15 PM89 °FThundershowers. Partly sunny.6 mph27%30.11 "Hg10 mi
1:55 PM90 °FBroken clouds.5 mph28%30.11 "Hg10 mi
1:35 PM89 °FPartly sunny.10 mph29%30.11 "Hg10 mi
1:15 PM90 °FScattered clouds.12 mph28%30.12 "Hg10 mi
12:55 PM89 °FScattered clouds.9 mph30%30.12 "Hg10 mi
12:35 PM89 °FPartly sunny.13 mph31%30.13 "Hg10 mi
12:15 PM89 °FScattered clouds.9 mph31%30.14 "Hg10 mi
11:55 AM89 °FScattered clouds.9 mph31%30.15 "Hg10 mi
11:35 AM88 °FSunny.6 mph32%30.15 "Hg10 mi
11:15 AM87 °FSunny.8 mph33%30.15 "Hg10 mi
10:55 AM86 °FSunny.8 mph35%30.15 "Hg10 mi
10:35 AM86 °FSunny.9 mph34%30.15 "Hg10 mi
10:15 AM84 °FSunny.7 mph35%30.15 "Hg10 mi
9:55 AM84 °FSunny.3 mph36%30.15 "Hg10 mi
9:35 AM82 °FSunny.6 mph37%30.15 "Hg10 mi
9:15 AM82 °FSunny.6 mph38%30.16 "Hg10 mi
Weather by CustomWeather, © 2016

See weather overviewHow to use our weather pages